Location: Gwatt
(46.7204°N, 7.6223°E)
Time: 22:16:49
(UTC+00:00)

Tiros 1 despin weight - Pass Details

Date: 23 January 2021
Orbit: 593 x 642 km, 48.2° (Epoch: 08 March)

Event Time Altitude Azimuth Distance (km) Brightness Sun altitude
Rises 20:02:02 0° 286° (WNW) 2,843 ? -37.8°
Reaches altitude 10° 20:04:35 10° 274° (W) 1,932 ? -38.2°
Enters shadow 20:04:56 12° 272° (W) 1,816 ? -38.2°
